Waarnemingen

Advertentie
Mijn weer
Ölands Södra Udde, Zweden (2644): temperatuur & dauwpunt: 11.01.2020 23:00:00 - 17.01.2020 23:00:00 (CET)Ölands Södra Udde, Zweden (2644): windsnelheid & windstoten: 11.01.2020 23:00:00 - 17.01.2020 23:00:00 (CET)Ölands Södra Udde, Zweden (2644): windrichting: 11.01.2020 23:00:00 - 17.01.2020 23:00:00 (CET)Ölands Södra Udde, Zweden (2644): luchtdruk: 11.01.2020 23:00:00 - 17.01.2020 23:00:00 (CET)Ölands Södra Udde, Zweden (2644): zicht: 11.01.2020 23:00:00 - 17.01.2020 23:00:00 (CET)Ölands Södra Udde, Zweden (2644): neerslag: 11.01.2020 23:00:00 - 17.01.2020 23:00:00 (CET)
Datum & Tijd tt [°C] td [°C] ff [km/u] ff [kn] fx [km/u] fx [kn] dd ppp [hPa] vv [km] rr [mm]
17.01.2020 23:00:00 5,4 4,0 27 15 36 19 ZZW 1012,8 7 0,0
17.01.2020 22:00:00 5,3 4,0 28 15 35 19 Z 1013,7 7 0,0
17.01.2020 21:00:00 5,3 3,8 29 16 39 21 Z 1014,3 8 0,0
17.01.2020 20:00:00 5,5 3,8 32 17 39 21 Z 1015,0 10 0,0
17.01.2020 19:00:00 5,7 4,0 33 18 41 22 Z 1015,5 13 0,0
17.01.2020 18:00:00 5,7 4,3 33 18 42 23 Z 1016,4 11 0,0
17.01.2020 17:00:00 5,8 4,3 34 19 44 24 Z 1017,0 12 0,0
17.01.2020 16:00:00 6,0 4,3 36 20 46 25 Z 1017,4 15 0,0
17.01.2020 15:00:00 6,3 4,6 34 18 41 22 Z 1017,9 16 0,0
17.01.2020 14:00:00 6,5 4,7 33 18 42 23 Z 1018,6 13 0,0
17.01.2020 13:00:00 6,5 5,0 25 13 35 19 ZZW 1019,7 13 0,0
17.01.2020 12:00:00 6,5 5,0 28 15 40 22 ZZW 1020,4 14 0,0
17.01.2020 11:00:00 6,4 4,9 29 16 45 24 ZZW 1020,9 15 0,0
17.01.2020 10:00:00 6,3 4,8 37 20 48 26 ZZW 1021,2 16 0,0
17.01.2020 09:00:00 6,1 4,7 36 20 46 25 Z 1021,4 18 0,0
17.01.2020 08:00:00 6,0 4,5 38 21 47 26 Z 1021,7 21 0,0
17.01.2020 07:00:00 5,9 4,5 34 18 41 22 Z 1022,2 22 0,0
17.01.2020 06:00:00 5,8 4,6 32 18 39 21 Z 1023,0 27 0,0
17.01.2020 05:00:00 5,6 4,7 26 14 29 16 Z 1023,4 19 0,0
17.01.2020 04:00:00 5,5 4,8 21 11 25 14 Z 1024,1 14 0,0
17.01.2020 03:00:00 5,6 4,9 19 10 26 14 ZZW 1024,6 20 0,0
17.01.2020 02:00:00 5,2 4,5 13 7 27 15 Z 1025,0 8 0,0
17.01.2020 01:00:00 5,6 4,6 18 10 34 18 WZW 1025,8 10 0,0
17.01.2020 00:00:00 5,5 4,1 29 16 44 24 WZW 1025,8 14 0,0
16.01.2020 23:00:00 5,1 3,9 29 15 40 22 WZW 1025,8 14 0,0
16.01.2020 22:00:00 5,2 4,1 29 16 41 22 WZW 1026,1 13 0,0
16.01.2020 21:00:00 5,4 4,5 23 13 38 20 WZW 1025,5 14 0,0
16.01.2020 20:00:00 5,7 4,8 26 14 35 19 WZW 1025,3 12 0,0
16.01.2020 19:00:00 5,7 5,0 26 14 35 19 WZW 1024,8 12 0,0
16.01.2020 18:00:00 5,9 4,9 21 12 30 16 WZW 1024,6 14 0,0
16.01.2020 17:00:00 5,9 4,5 20 11 27 15 WZW 1024,2 14 0,0
16.01.2020 16:00:00 5,8 4,2 21 11 29 16 WZW 1023,2 14 0,0
16.01.2020 15:00:00 6,7 3,8 26 14 39 21 W 1022,9 17 0,0
16.01.2020 14:00:00 6,9 4,0 32 17 44 24 W 1021,9 16 0,0
16.01.2020 13:00:00 6,7 4,5 37 20 49 27 WZW 1021,5 16 0,0
16.01.2020 12:00:00 6,6 4,6 37 20 48 26 WZW 1020,7 15 0,0
16.01.2020 11:00:00 6,4 4,7 36 20 51 27 WZW 1020,2 16 0,0
16.01.2020 10:00:00 6,2 4,7 35 19 49 27 WZW 1019,3 17 0,0
16.01.2020 09:00:00 6,1 4,4 36 19 51 28 WZW 1018,7 17 0,0
16.01.2020 08:00:00 6,1 4,6 31 17 45 24 WZW 1017,9 19 0,0
16.01.2020 07:00:00 5,9 3,9 31 17 46 25 WZW 1017,1 22 0,0
16.01.2020 06:00:00 5,9 3,6 33 18 47 25 WZW 1016,5 27 0,0
16.01.2020 05:00:00 5,9 3,2 32 17 46 25 WZW 1015,8 44 0,0
16.01.2020 04:00:00 6,2 3,3 32 17 56 31 W 1015,1 45 0,0
16.01.2020 03:00:00 6,3 3,5 35 19 46 25 W 1013,8 50 0,0
16.01.2020 02:00:00 6,4 3,6 19 10 45 25 W 1012,6 50 0,0
16.01.2020 01:00:00 7,3 5,4 32 17 56 30 W 1010,8 29 0,0
16.01.2020 00:00:00 7,6 5,7 40 21 54 29 WZW 1008,9 29 0,0
15.01.2020 23:00:00 7,8 5,6 33 18 61 33 ZW 1007,9 21 0,1
15.01.2020 22:00:00 8,2 5,5 32 18 48 26 ZW 1007,7 33 0,0
15.01.2020 21:00:00 8,0 5,5 32 17 45 24 ZW 1007,1 32 0,0
15.01.2020 20:00:00 8,2 5,7 34 18 46 25 ZZW 1006,9 42 0,0
15.01.2020 19:00:00 8,3 5,6 30 16 43 23 ZW 1006,6 38 0,0
15.01.2020 18:00:00 8,0 5,6 25 13 41 22 ZW 1006,6 35 0,0
15.01.2020 17:00:00 7,8 5,6 27 15 46 25 ZW 1006,8 34 0,0
15.01.2020 16:00:00 8,3 5,8 37 20 58 32 ZW 1006,5 39 0,0
15.01.2020 15:00:00 8,1 5,9 34 18 52 28 ZW 1006,2 37 0,0
15.01.2020 14:00:00 8,2 6,0 27 15 44 24 ZW 1005,8 26 0,0
15.01.2020 13:00:00 8,1 6,1 29 16 54 29 ZW 1005,4 29 0,0
15.01.2020 12:00:00 8,2 6,3 33 18 54 29 ZW 1004,9 28 0,0
15.01.2020 11:00:00 8,2 6,3 36 19 57 31 ZW 1004,6 18 0,1
15.01.2020 10:00:00 7,6 6,6 38 21 59 32 ZW 1004,3 13 0,3
15.01.2020 09:00:00 7,6 6,4 37 20 59 32 ZW 1003,8 8 0,4
15.01.2020 08:00:00 7,7 6,5 36 19 57 31 ZW 1003,4 9 0,3
15.01.2020 07:00:00 7,3 6,2 37 20 59 32 ZW 1003,0 10 0,3
15.01.2020 06:00:00 8,0 5,5 39 21 61 33 ZW 1002,3 31 0,0
15.01.2020 05:00:00 7,9 5,5 42 23 63 34 ZW 1002,1 30 0,0
15.01.2020 04:00:00 7,5 5,6 41 22 61 33 ZZW 1002,0 31 0,0
15.01.2020 03:00:00 7,6 5,4 42 23 61 33 ZZW 1002,3 31 0,0
15.01.2020 02:00:00 7,4 5,2 47 26 61 33 ZZW 1002,8 28 0,0
15.01.2020 01:00:00 7,1 5,1 44 24 57 31 ZZW 1003,3 20 0,0
15.01.2020 00:00:00 7,0 5,5 42 23 53 28 ZZW 1003,8 23 0,0
14.01.2020 23:00:00 6,6 5,4 36 20 43 23 ZZW 1004,1 32 0,0
14.01.2020 22:00:00 6,4 5,6 24 13 31 17 ZZW 1005,0 16 0,0
14.01.2020 21:00:00 6,3 5,3 17 9 38 21 ZW 1005,1 15 0,0
14.01.2020 20:00:00 6,2 5,2 24 13 39 21 ZW 1005,1 21 0,0
14.01.2020 19:00:00 6,4 5,5 27 15 43 23 ZW 1005,2 20 0,0
14.01.2020 18:00:00 6,5 5,6 31 17 52 28 WZW 1004,5 23 0,0
14.01.2020 17:00:00 6,9 6,0 31 17 52 28 ZW 1003,6 19 0,2
14.01.2020 16:00:00 6,4 5,9 32 17 51 28 ZW 1003,3 5 0,6
14.01.2020 15:00:00 6,2 5,6 36 19 54 29 ZZW 1002,8 7 0,8
14.01.2020 14:00:00 6,0 5,3 38 21 58 31 ZZW 1002,7 7 0,6
14.01.2020 13:00:00 5,7 4,8 45 25 65 35 ZZW 1002,9 5 1,0
14.01.2020 12:00:00 5,3 4,4 51 27 64 34 ZZW 1003,5 5 0,1
14.01.2020 11:00:00 5,4 3,7 52 28 65 35 Z 1004,3 13 0,0
14.01.2020 10:00:00 5,3 3,9 49 26 66 35 Z 1005,3 11 0,0
14.01.2020 09:00:00 5,2 3,7 49 27 61 33 Z 1006,2 15 0,0
14.01.2020 08:00:00 5,1 3,4 51 28 64 35 Z 1007,4 20 0,0
14.01.2020 07:00:00 5,1 3,4 49 27 63 34 Z 1008,4 23 0,0
14.01.2020 06:00:00 5,3 4,0 41 22 55 30 Z 1009,4 18 0,0
14.01.2020 05:00:00 5,4 4,0 38 20 48 26 Z 1010,0 - 0,0
14.01.2020 04:00:00 5,4 4,4 33 18 42 23 Z 1010,9 10 0,0
14.01.2020 03:00:00 5,4 3,9 29 16 37 20 ZZW 1011,6 26 0,0
14.01.2020 02:00:00 5,5 4,5 26 14 36 19 Z 1012,8 21 0,0
14.01.2020 01:00:00 5,4 4,7 24 13 30 16 ZZW 1013,1 15 0,0
14.01.2020 00:00:00 5,3 4,6 22 12 28 15 ZZW 1013,4 19 0,0
13.01.2020 23:00:00 5,2 3,9 15 8 26 14 ZZW 1013,6 23 0,0
13.01.2020 22:00:00 5,2 3,6 13 7 31 17 ZW 1014,1 32 0,0
13.01.2020 21:00:00 5,1 3,9 19 11 28 15 ZW 1014,3 19 0,0
13.01.2020 20:00:00 5,0 3,7 21 11 29 15 WZW 1014,5 27 0,0
13.01.2020 19:00:00 4,9 3,9 20 11 29 16 WZW 1014,5 20 0,0
13.01.2020 18:00:00 4,9 3,7 21 11 34 19 WZW 1014,4 18 0,0
13.01.2020 17:00:00 5,0 4,0 22 12 34 18 WZW 1014,0 17 0,0
13.01.2020 16:00:00 5,3 3,5 26 14 37 20 WZW 1014,1 22 0,0
13.01.2020 15:00:00 5,4 3,1 28 15 36 20 W 1014,1 26 0,0
13.01.2020 14:00:00 5,7 3,9 26 14 31 17 WZW 1014,1 24 0,0
13.01.2020 13:00:00 5,7 4,3 18 10 37 20 WZW 1014,4 30 0,0
13.01.2020 12:00:00 5,7 4,0 29 16 37 20 WZW 1014,6 34 0,0
13.01.2020 11:00:00 5,7 4,5 26 14 37 20 W 1014,9 28 0,0
13.01.2020 10:00:00 5,6 4,6 22 12 32 17 WZW 1014,4 26 0,0
13.01.2020 09:00:00 5,6 4,7 22 12 35 19 WZW 1014,0 22 0,0
13.01.2020 08:00:00 5,6 5,0 24 13 31 17 WZW 1013,3 17 0,0
13.01.2020 07:00:00 5,5 5,1 24 13 32 17 WZW 1012,9 12 0,0
13.01.2020 06:00:00 5,2 4,6 18 10 29 16 WZW 1012,7 17 0,0
13.01.2020 05:00:00 5,3 4,7 20 11 29 16 WZW 1012,3 27 0,0
13.01.2020 04:00:00 5,2 4,7 16 9 26 14 WZW 1011,9 29 0,0
13.01.2020 03:00:00 5,0 4,6 18 10 27 15 W 1011,5 30 0,0
13.01.2020 02:00:00 4,9 4,5 21 11 33 18 W 1011,0 23 0,0
13.01.2020 01:00:00 5,0 4,4 27 15 34 18 W 1010,2 50 0,2
13.01.2020 00:00:00 5,0 4,6 28 15 38 20 WZW 1009,6 10 1,4
12.01.2020 23:00:00 5,3 5,0 31 17 39 21 WZW 1009,3 10 1,5
12.01.2020 22:00:00 5,4 5,1 22 12 31 17 WZW 1009,2 8 1,8
12.01.2020 21:00:00 5,4 5,0 23 13 35 19 WZW 1009,2 9 0,3
12.01.2020 20:00:00 5,7 5,0 25 14 38 20 WZW 1009,4 27 0,0
12.01.2020 19:00:00 5,8 5,2 29 16 38 21 WZW 1009,6 24 0,0
12.01.2020 18:00:00 5,8 5,2 27 15 39 21 WZW 1009,6 19 0,0
12.01.2020 17:00:00 5,9 5,3 27 14 43 23 WZW 1009,6 23 0,0
12.01.2020 16:00:00 6,0 5,4 29 16 45 24 WZW 1009,4 26 0,0
12.01.2020 15:00:00 5,9 5,5 32 18 48 26 WZW 1009,2 13 0,1
12.01.2020 14:00:00 5,9 5,5 34 18 51 28 WZW 1009,5 11 0,2
12.01.2020 13:00:00 5,8 5,4 35 19 53 29 WZW 1009,7 8 0,5
12.01.2020 12:00:00 5,9 5,2 35 19 53 29 WZW 1009,9 9 0,1
12.01.2020 11:00:00 6,0 5,3 37 20 55 30 WZW 1010,2 10 0,1
12.01.2020 10:00:00 6,0 5,0 41 22 63 34 WZW 1010,2 10 0,0
12.01.2020 09:00:00 6,1 4,9 48 26 65 35 WZW 1010,2 11 0,0
12.01.2020 08:00:00 6,0 4,8 47 26 69 37 ZW 1010,3 11 0,0
12.01.2020 07:00:00 5,9 4,9 48 26 69 38 WZW 1011,0 11 0,0
12.01.2020 06:00:00 5,8 4,8 47 26 68 37 WZW 1011,4 7 0,0
12.01.2020 05:00:00 5,6 4,7 48 26 70 38 WZW 1011,8 4,1 0,1
12.01.2020 04:00:00 5,8 4,2 46 25 69 38 WZW 1012,3 11 0,0
12.01.2020 03:00:00 5,8 4,3 44 24 68 37 ZW 1013,2 11 0,0
12.01.2020 02:00:00 5,7 4,3 53 28 71 38 WZW 1013,6 4,5 0,0
12.01.2020 01:00:00 5,7 4,0 46 25 74 40 WZW 1014,3 13 0,0
12.01.2020 00:00:00 5,8 3,8 51 28 76 41 WZW 1015,2 12 0,0
11.01.2020 23:00:00 5,7 3,9 49 27 77 42 WZW 1016,0 14 0,0

tt = temperatuur
td = dauwpunt
ff = windsnelheid
fx = windstoten
dd = windrichting
ppp = luchtdruk
vv = zicht
rr = neerslag

Weerstations in de omgeving